This demonstration page uses our WeatherBlox Daily Observations layout. Learn more.

39.01783, -85.05884

Hourly Observations for June 19, 2019

Temp ( °F °C ) Dew Point ( °F °C ) Humidity (%) Winds ( mph kmh ) Pressure ( in mb ) Visibility ( mi km ) Precip ( " mm )
12:52 am 00:52 Mostly Cloudy 70 21.1 68 20 93 93 Calm 29.83 1010 9 14.484096 0 0
1:52 am 01:52 Mostly Clear 69 20.6 67 19.4 93 93 SW 3 6 29.8 1009 7 11.265408 0 0
2:52 am 02:52 Mostly Clear with Mist and Fog 69 20.6 67 19.4 93 93 Calm 29.8 1009 6 9.656064 0 0
3:52 am 03:52 Mostly Clear with Mist and Fog 68 20 66 18.9 93 93 S 3 6 29.77 1008 5 8.04672 0 0
4:52 am 04:52 Mostly Cloudy with Mist and Fog 67 19.4 66 18.9 97 97 Calm 29.77 1008 5 8.04672 0 0
5:52 am 05:52 Mostly Cloudy with Mist and Fog 68 20 66 18.9 93 93 Calm 29.77 1008 5 8.04672 0 0
6:52 am 06:52 Mostly Cloudy with Mist and Fog 68 20 66 18.9 93 93 Calm 29.77 1008 5 8.04672 0 0
7:52 am 07:52 Cloudy 70 21.1 68 20 93 93 Calm 29.77 1008 8 12.874752 0 0
8:52 am 08:52 Mostly Cloudy 73 22.8 70 21.1 90 90 S 3 6 29.77 1008 8 12.874752 0 0
9:27 am 09:27 Cloudy 74 23.3 69 20.6 85 85 Calm 29.77 1008 8 12.874752 0 0
9:52 am 09:52 Mostly Cloudy 74 23.3 70 21.1 88 88 VRB 3 6 29.77 1008 8 12.874752 0 0
10:34 am 10:34 Mostly Cloudy 78 25.6 70 21.1 76 76 VRB 5 7 29.74 1007 10 16.09344 0 0
10:52 am 10:52 Cloudy 76 24.4 69 20.6 79 79 SSW 7 11 29.77 1008 9 14.484096 0 0
11:28 am 11:28 Mostly Cloudy 78 25.6 71 21.7 79 79 SW 7 11 29.74 1007 8 12.874752 0 0
11:52 am 11:52 Mostly Cloudy 79 26.1 70 21.1 74 74 S 9 15 29.74 1007 9 14.484096 0 0
12:43 pm 12:43 Mostly Cloudy 80 26.7 70 21.1 71 71 VRB 3 6 29.71 1006 9 14.484096 0.001 0.001
12:52 pm 12:52 Mostly Cloudy 80 26.7 70 21.1 71 71 W 6 9 29.74 1007 9 14.484096 0.001 0.001
1:52 pm 13:52 Mostly Cloudy 81 27.2 69 20.6 67 67 SSE 7 11 29.71 1006 9 14.484096 0 0
2:52 pm 14:52 Mostly Cloudy 83 28.3 69 20.6 63 63 S 12 19 29.68 1005 10 16.09344 0 0
3:52 pm 15:52 Mostly Cloudy 83 28.3 69 20.6 63 63 S 12 19 29.65 1004 10 16.09344 0 0
4:06 pm 16:06 Mostly Cloudy with Nearby Thunderstorms 83 28.3 69 20.6 63 63 S 8 13 29.62 1003 10 16.09344 0 0
4:24 pm 16:24 Mostly Sunny 82 27.8 68 20 63 63 SSW 8 13 29.62 1003 10 16.09344 0 0
4:31 pm 16:31 Mostly Cloudy with Nearby Thunderstorms 82 27.8 68 20 63 63 SSW 8 13 29.62 1003 10 16.09344 0 0
4:46 pm 16:46 Mostly Cloudy 81 27 70 21 70 70 SSW 8 13 29.62 1003 10 16.09344 0 0
4:52 pm 16:52 Mostly Cloudy 81 27.2 70 21.1 69 69 S 12 19 29.62 1003 10 16.09344 0 0
5:37 pm 17:37 Mostly Cloudy with Nearby Thunderstorms 80 26.7 69 20.6 69 69 SW 8 13 29.62 1003 9 14.484096 0 0
5:45 pm 17:45 Mostly Cloudy with Thunderstorms 80 26.7 68 20 67 67 WSW 6 9 29.59 1002 9 14.484096 0 0
5:52 pm 17:52 Cloudy with Light Thunderstorms 78 25.6 69 20.6 74 74 W 9 15 29.62 1003 8 12.874752 0.001 0.001
5:56 pm 17:56 Cloudy with Heavy Thunderstorms 77 25 69 20.6 77 77 S 8 13 29.62 1003 2.5 4.02336 0.001 0.001
6:10 pm 18:10 Cloudy with Light Thunderstorms 73 22.8 69 20.6 87 87 NW 10 17 29.65 1004 2 3.218688 0.06 1.524
6:52 pm 18:52 Cloudy with Thunderstorms 69 20.6 67 19.4 93 93 WNW 7 11 29.68 1005 2 3.218688 0.61 15.494
7:26 pm 19:26 Cloudy with Thunderstorms 70 21.1 67 19.4 90 90 SW 5 7 29.68 1005 2 3.218688 0.28 7.112
7:32 pm 19:32 Mostly Cloudy with Light Rain 70 21.1 67 19.4 90 90 SW 5 7 29.68 1005 2 3.218688 0.29 7.366
7:52 pm 19:52 Cloudy with Light Rain 70 21.1 67 19.4 90 90 Calm 29.65 1004 2 3.218688 0.34 8.636
7:57 pm 19:57 Cloudy with Rain 70 21.1 68 20 93 93 Calm 29.68 1005 5 8.04672 0.01 0.254
8:52 pm 20:52 Cloudy 70 21.1 68 20 93 93 Calm 29.62 1003 8 12.874752 0.07 1.778
9:52 pm 21:52 Cloudy 70 21.1 67 19.4 90 90 S 5 7 29.62 1003 7 11.265408 0 0
10:23 pm 22:23 Cloudy with Mist and Fog 70 21.1 68 20 93 93 SSE 6 9 29.62 1003 4 6.437376 0 0
10:52 pm 22:52 Cloudy with Light Rain 70 21.1 67 19.4 90 90 SSE 6 9 29.62 1003 5 8.04672 0.001 0.001
11:25 pm 23:25 Cloudy with Light Rain 70 21.1 67 19.4 90 90 SSE 8 13 29.62 1003 2 3.218688 0.001 0.001
11:52 pm 23:52 Mostly Cloudy with Mist and Fog 69 20.6 67 19.4 93 93 SSE 7 11 29.62 1003 5 8.04672 0.001 0.001

Powered by AerisWeather